Terminal Aerodrome Forecast
Issued by NWS Mobile, AL

Home | Current Version | Previous Version | Text Only | Print | Product List | Glossary On
Versions: 1 2 3 4 5 6 7 8 9 10 11 12 13 14 15 16 17 18 19 20 21 22 23 24 25 26 27 28
000
FTUS44 KMOB 270000 RRA
TAFPNS
TAF
KPNS 270009Z 2700/2724 34008KT P6SM SKC
     FM270300 32008KT P6SM SCT250
     FM271100 32012G15KT P6SM SCT250=

USA.gov is the U.S. government's official web portal to all federal, state and local government web resources and services.